[[{"header":{"parameterUnit":"m.s-1","parameterCategory":1,"la1":30.2991,"la2":30.254,"lo1":-89.0895,"lo2":-89.0444,"dy":0.0017,"dx":0.0017,"nx":28,"ny":28,"refTime":"2023-10-20T03:00:00:Z","depth":0,"parameterNumber":2,"parameterNumberName":"U-component_of_WINDS"},"data":[0,0,0,0,0,0,0,0,0,0,0,0,0,0,0,0,0,0,0,0,0,0,0,0,0,0,0,0,0,0,0,0,0,0,0,0,0,0,0,0,0,0,0,0,0,0,0,0,0,0,0,0,0,0,0,0,0,0,3.9972,3.9973,0,4.0068,4.0069,4.0071,4.0033,4.0031,4.0029,4.0027,4.0132,4.0137,4.0142,0,0,0,0,0,0,0,0,0,0,0,0,0,3.9765,3.9769,3.9971,3.9973,3.9974,4.0068,4.007,4.0071,4.0034,4.0031,4.0028,4.0026,4.0131,4.0137,4.0143,0,0,0,0,0,0,0,0,0,0,0,0,0,3.9858,3.977,3.9971,3.9967,3.9967,4.0068,4.007,4.0071,4.0034,4.0031,4.0028,4.0024,4.0129,4.0136,4.0143,4.0256,0,0,4.0166,4.0169,0,0,0,0,0,0,0,0,3.9852,3.9865,3.9966,3.9967,3.9968,4.0035,4.0035,4.0134,4.0035,4.0009,4.0027,4.0023,4.0103,4.0113,4.0138,4.0261,4.0266,4.0167,4.0171,4.0174,4.0176,0,0,0,0,0,0,0,3.9846,3.9861,4.001,3.9968,3.9969,3.9963,3.9973,4.0054,4.0074,4.0011,4.0009,4.002,4.0103,4.0131,4.0141,4.0268,4.0166,4.0173,4.0177,4.018,4.0497,4.0501,0,0,0,0,0,0,3.9838,3.9856,4.0007,4.0013,3.99,3.997,3.998,4.0017,4.0073,4.0078,4.0023,4.0018,4.012,4.0132,4.0144,4.0286,4.0174,4.0181,4.0185,4.0493,4.0498,4.0502,0,0,0,0,0,0,3.9834,3.9852,4.0003,3.9934,3.9953,3.9977,4.0019,4.0021,4.0049,4.0082,4.0086,4.0047,4.0118,4.0134,4.023,4.0289,4.0184,4.0191,4.0489,4.0495,4.05,4.0566,0,0,0,0,0,0,3.9828,3.9851,3.9891,3.9935,3.9956,4.0084,4.0022,4.0025,4.0061,4.0055,4.0106,4.0111,4.0117,4.022,4.0238,4.0297,4.0197,4.0483,4.0491,4.0498,4.0559,4.0574,4.0586,0,0,0,0,0,3.9821,3.9905,3.9893,3.9911,4.0007,4.0087,4.01,4.0103,4.0065,4.0109,4.0131,4.011,4.0279,4.023,4.025,4.0312,4.048,4.0489,4.0498,4.0553,4.0571,4.0586,0,0,0,0,0,0,3.9867,3.991,3.9897,3.9998,4.0039,4.0081,4.0134,4.0121,4.0175,4.0168,4.0171,4.0183,4.0284,4.0307,4.0251,4.0429,4.0374,4.0388,4.0409,4.0427,4.044,4.0433,4.0203,0,0,0,0,0,3.9889,3.9948,3.9984,4.0069,4.0091,4.011,4.0145,4.0144,4.0188,4.0205,4.0234,4.028,4.0345,4.0387,4.0447,4.0562,4.0576,4.0616,4.0629,4.064,4.0653,4.0722,4.0742,4.0532,4.0532,4.0532,0,0,3.9935,3.9966,4.0003,4.008,4.0112,4.0177,4.0124,4.0194,4.0244,4.0216,4.031,4.0334,4.0386,4.0494,4.0543,4.0517,4.0714,4.0652,4.066,4.0667,4.0734,4.0754,4.0771,4.0538,4.0537,4.0536,0,0,4.0053,4.008,4.0157,4.0191,4.0241,4.0253,4.0272,4.0318,4.0333,4.0426,4.0409,4.0471,4.0579,4.0619,4.0653,4.0794,4.0779,4.0814,4.0886,4.0954,4.097,4.0985,4.1041,4.106,4.0825,4.0826,4.0826,0,4.0104,4.0199,4.0199,4.0272,4.0309,4.0287,4.0369,4.0403,4.047,4.0498,4.0467,4.0608,4.0641,4.0761,4.0796,4.0823,4.0849,4.0808,4.0967,4.0982,4.0996,4.1049,4.1069,4.083,4.0829,4.0829,4.0829,0,4.0263,4.033,4.0387,4.0453,4.0496,4.0573,4.0589,4.0634,4.0631,4.0649,4.0749,4.0789,4.086,4.0888,4.0885,4.1011,4.0994,4.0965,4.0911,4.1021,4.1071,4.109,4.0836,4.0835,4.0833,4.0832,0,0,4.0409,4.0478,4.05,4.0532,4.0588,4.0642,4.0721,4.079,4.0831,4.088,4.095,4.1046,4.1022,4.1061,4.1064,4.1123,4.124,4.1088,4.109,4.1119,4.1387,4.141,4.1433,4.1229,4.1233,4.1236,4.1385,0,4.0535,4.0671,4.0676,4.0802,4.0868,4.0852,4.0922,4.0966,4.0987,4.1049,4.1072,4.1142,4.1102,4.1127,4.1185,4.1213,4.1294,4.1202,4.1299,4.1303,4.1289,4.1458,4.1481,4.1619,4.1403,4.1407,4.1409,0,4.0698,4.0753,4.0886,4.0939,4.0966,4.1028,4.1096,4.1153,4.1207,4.1218,4.1265,4.1261,4.1348,4.129,4.1413,4.1351,4.1392,4.1412,4.1418,4.1429,4.1364,4.1478,4.1662,4.1685,4.1439,4.1437,4.1434,0,4.0798,4.0905,4.1,4.1028,4.109,4.1136,4.1165,4.1214,4.1258,4.1318,4.1347,4.1417,4.1456,4.1512,4.1529,4.1485,4.1655,4.1596,4.1671,4.1671,4.1708,4.1705,4.1905,4.1729,4.1729,4.1728,4.1728,0,4.0938,4.1021,4.1046,4.1105,4.12,4.1208,4.1303,4.1329,4.1375,4.1442,4.1432,4.1496,4.1513,4.1582,4.1597,4.17,4.1717,4.1732,4.1735,4.1734,4.1733,4.1762,4.1755,4.1734,4.1733,4.1732,4.1731,0,4.1065,4.1084,4.1188,4.124,4.1256,4.1324,4.1371,4.143,4.1451,4.1537,4.1558,4.1592,4.1673,4.1695,4.1792,4.1802,4.1926,4.1918,4.1907,4.1908,4.1982,4.1977,4.221,4.2243,4.2043,4.2044,4.2046,0,4.1155,4.1219,4.1279,4.1323,4.1354,4.1424,4.147,4.1482,4.1531,4.16,4.1652,4.1732,4.1797,4.1929,4.1964,4.2041,4.2038,4.2114,4.2049,4.2048,4.2044,4.2041,4.205,4.2127,4.2129,4.2131,4.2132,0,4.1314,4.1322,4.1385,4.1456,4.151,4.1566,4.1619,4.1657,4.1678,4.1734,4.1816,4.1867,4.1968,4.205,4.2128,4.2162,4.2154,4.2153,4.2175,4.2176,4.2168,4.2178,4.1945,4.2148,4.2146,4.2145,4.2144,4.2144,4.1427,4.1486,4.1539,4.1613,4.1656,4.1707,4.1767,4.1797,4.1866,4.1948,4.1953,4.2044,4.2103,4.2207,4.2246,4.2321,4.2299,4.2329,4.2338,4.2346,4.2354,4.2155,4.2335,4.2335,4.2335,4.2334,4.2334,0,4.159,4.1624,4.1692,4.1769,4.1829,4.1813,4.1874,4.1926,4.2006,4.2061,4.2126,4.2225,4.2306,4.235,4.2432,4.2484,4.2483,4.2505,4.2503,4.2512,4.2367,4.2342,4.2506,4.2506,4.2505,4.2505,4.2505,4.2505,4.1681,4.1781,4.1797,4.192,4.1955,4.2044,4.2081,4.2131,4.2175,4.2285,4.2352,4.238,4.2433,4.252,4.2595,4.2607,4.2639,4.2666,4.2675,4.2539,4.2522,4.2505,4.2481,4.2672,4.2672,4.2814,4.2815,4.2816]},{"header":{"parameterUnit":"m.s-1","parameterCategory":1,"la1":30.2991,"la2":30.254,"lo1":-89.0895,"lo2":-89.0444,"dy":0.0017,"dx":0.0017,"nx":28,"ny":28,"refTime":"2023-10-20T03:00:00:Z","depth":0,"parameterNumber":3,"parameterNumberName":"V-component_of_WINDS"},"data":[0,0,0,0,0,0,0,0,0,0,0,0,0,0,0,0,0,0,0,0,0,0,0,0,0,0,0,0,0,0,0,0,0,0,0,0,0,0,0,0,0,0,0,0,0,0,0,0,0,0,0,0,0,0,0,0,0,0,1.6013,1.6014,0,1.6137,1.6139,1.614,1.614,1.6138,1.6136,1.6135,1.6263,1.6267,1.6272,0,0,0,0,0,0,0,0,0,0,0,0,0,1.5772,1.5776,1.6012,1.6014,1.6016,1.6137,1.6139,1.614,1.614,1.6138,1.6136,1.6134,1.6261,1.6267,1.6273,0,0,0,0,0,0,0,0,0,0,0,0,0,1.5884,1.5778,1.6012,1.603,1.6033,1.6137,1.6139,1.6141,1.614,1.6138,1.6135,1.6133,1.6259,1.6266,1.6273,1.6368,0,0,1.6296,1.6299,0,0,0,0,0,0,0,0,1.5878,1.5893,1.6026,1.6029,1.6032,1.612,1.6101,1.6217,1.6141,1.61,1.6135,1.6132,1.6217,1.6228,1.6257,1.6374,1.6379,1.6297,1.6301,1.6304,1.6306,0,0,0,0,0,0,0,1.587,1.5888,1.6062,1.6028,1.6032,1.6031,1.6044,1.6123,1.6171,1.6103,1.6103,1.6118,1.6218,1.6249,1.626,1.6381,1.6296,1.6303,1.6307,1.631,1.6577,1.6579,0,0,0,0,0,0,1.5859,1.5881,1.6058,1.6066,1.5948,1.6037,1.6052,1.6095,1.617,1.6179,1.612,1.6118,1.6238,1.6251,1.6264,1.6376,1.6304,1.6311,1.6315,1.6574,1.6577,1.658,0,0,0,0,0,0,1.5854,1.5875,1.6053,1.5974,1.5996,1.6044,1.6092,1.6098,1.6129,1.6183,1.6191,1.6143,1.6237,1.6254,1.6341,1.6381,1.6314,1.6321,1.6571,1.6575,1.6579,1.6603,0,0,0,0,0,0,1.5847,1.5873,1.591,1.5974,1.6,1.6129,1.6094,1.6103,1.6142,1.614,1.6206,1.6215,1.6236,1.633,1.6348,1.639,1.6327,1.6568,1.6573,1.6577,1.6599,1.6607,1.6614,0,0,0,0,0,1.5838,1.5913,1.5912,1.5933,1.6048,1.6131,1.6146,1.6168,1.6145,1.6182,1.6216,1.6213,1.6373,1.6339,1.6359,1.6404,1.6565,1.6571,1.6577,1.6595,1.6605,1.6614,0,0,0,0,0,0,1.5853,1.5922,1.5922,1.6019,1.6069,1.6131,1.6178,1.6179,1.6237,1.6233,1.6258,1.6273,1.6359,1.6391,1.6351,1.6496,1.6466,1.6477,1.6473,1.6483,1.6491,1.6481,1.6333,0,0,0,0,0,1.5867,1.5929,1.5986,1.6067,1.6092,1.613,1.6168,1.618,1.6233,1.6254,1.6294,1.6345,1.6407,1.6447,1.6507,1.6603,1.6616,1.6643,1.6651,1.6657,1.6666,1.6715,1.6727,1.66,1.66,1.66,0,0,1.5898,1.5943,1.5981,1.6071,1.6111,1.6173,1.6148,1.6216,1.6262,1.6265,1.6348,1.6379,1.6438,1.6529,1.6571,1.6557,1.6703,1.6665,1.667,1.6675,1.6722,1.6734,1.6745,1.6604,1.6603,1.6602,0,0,1.5985,1.6027,1.6097,1.6137,1.6197,1.6222,1.6239,1.63,1.632,1.6404,1.6406,1.6461,1.6568,1.6608,1.6642,1.674,1.6739,1.6759,1.68,1.6847,1.6857,1.6866,1.6898,1.691,1.6768,1.6768,1.6768,0,1.6016,1.611,1.6133,1.62,1.6238,1.6242,1.6311,1.6349,1.6426,1.6452,1.6435,1.6566,1.6606,1.6705,1.6728,1.6757,1.6775,1.6751,1.6854,1.6863,1.6872,1.6903,1.6915,1.6769,1.6769,1.6769,1.6769,0,1.6143,1.6208,1.6257,1.633,1.6374,1.6442,1.6473,1.6514,1.6523,1.6549,1.6632,1.668,1.6747,1.6772,1.6782,1.6871,1.686,1.6849,1.6819,1.6886,1.6915,1.6927,1.6772,1.6772,1.6771,1.677,0,0,1.6244,1.6326,1.6344,1.6375,1.644,1.6491,1.6558,1.6623,1.6656,1.6709,1.6764,1.6852,1.6841,1.688,1.6894,1.6936,1.7006,1.6919,1.692,1.6931,1.7103,1.7109,1.7123,1.7005,1.7008,1.701,1.7097,0,1.6336,1.6455,1.6476,1.6579,1.6638,1.6641,1.6699,1.6744,1.677,1.6822,1.685,1.6911,1.6893,1.6916,1.6958,1.6989,1.704,1.6983,1.7055,1.7057,1.7038,1.7139,1.7147,1.7227,1.7109,1.7111,1.7112,0,1.646,1.6513,1.6622,1.6676,1.6702,1.6754,1.6813,1.6864,1.6915,1.693,1.6971,1.6979,1.7047,1.7014,1.7105,1.7066,1.7096,1.7115,1.7119,1.7125,1.7088,1.7145,1.7254,1.7264,1.7131,1.713,1.7128,0,1.6518,1.6618,1.6695,1.6723,1.6789,1.6824,1.6853,1.6902,1.6938,1.699,1.7014,1.7073,1.7105,1.715,1.7173,1.7147,1.7261,1.7231,1.7274,1.7273,1.7297,1.7295,1.7409,1.732,1.732,1.7319,1.7319,0,1.6618,1.6684,1.6722,1.6769,1.6842,1.6865,1.6936,1.6964,1.7006,1.7057,1.7064,1.7112,1.714,1.7192,1.721,1.7281,1.7296,1.7308,1.7312,1.7307,1.7305,1.7326,1.732,1.7323,1.7322,1.7321,1.7321,0,1.6695,1.6724,1.6808,1.6863,1.6878,1.6929,1.6975,1.702,1.7044,1.7109,1.7125,1.7163,1.7223,1.725,1.7326,1.7338,1.7417,1.7418,1.74,1.7401,1.744,1.7435,1.7571,1.7588,1.749,1.7491,1.7491,0,1.6756,1.6806,1.6866,1.69,1.693,1.6986,1.7023,1.7046,1.7084,1.7143,1.718,1.7241,1.729,1.7386,1.7419,1.7476,1.7477,1.752,1.7485,1.7477,1.7474,1.747,1.7473,1.7526,1.7527,1.7528,1.7528,0,1.6859,1.687,1.6923,1.6981,1.7024,1.707,1.7116,1.7144,1.7173,1.7215,1.7276,1.7315,1.739,1.7448,1.7506,1.7535,1.7536,1.7539,1.7551,1.7545,1.7531,1.7536,1.7415,1.7536,1.7535,1.7534,1.7534,1.7534,1.6928,1.6972,1.7019,1.7077,1.7113,1.7155,1.7199,1.7227,1.7279,1.7342,1.7352,1.7417,1.7462,1.754,1.757,1.7619,1.7609,1.7627,1.7632,1.7635,1.7636,1.7525,1.763,1.763,1.763,1.763,1.763,0,1.7029,1.7059,1.7113,1.7175,1.7219,1.7217,1.7266,1.7303,1.736,1.7402,1.745,1.7519,1.7575,1.7611,1.7668,1.77,1.7701,1.7714,1.771,1.7716,1.7644,1.7626,1.7711,1.7711,1.7711,1.7711,1.7711,1.7711,1.7087,1.7159,1.7175,1.7264,1.7294,1.7357,1.7385,1.7422,1.7456,1.7532,1.7578,1.7602,1.7641,1.77,1.775,1.7759,1.7778,1.7791,1.7799,1.773,1.7722,1.7714,1.7697,1.7795,1.7795,1.7867,1.7867,1.7868]}]]